AirNav   Duncan Aviation - Near you to keep you flying
 
 1090 users online  

2WI6 Matson Airport
Stoughton, Wisconsin, USA

GOING TO STOUGHTON?


FAA INFORMATION EFFECTIVE 15 JULY 2021

Location

FAA Identifier: 2WI6
Lat/Long: 42-54-49.0070N 089-11-10.4140W
42-54.816783N 089-11.173567W
42.9136131,-89.1862261
(estimated)
Elevation: 915 ft. / 279 m (estimated)
Variation: 00W (1985)
From city: 2 miles E of STOUGHTON, WI
Time zone: UTC -5 (UTC -6 during Standard Time)
Zip code: 53589

Airport Operations

Airport use: Private use. Permission required prior to landing
Activation date: 04/1948
Control tower: no
ARTCC: CHICAGO CENTER
FSS: GREEN BAY FLIGHT SERVICE STATION
Attendance: UNATNDD
Wind indicator: yes
Segmented circle: no

Airport Communications

WX ASOS at MSN (15 nm NW): PHONE 608-249-0615
WX AWOS-3 at JVL (19 nm S): PHONE 608-758-1723
WX AWOS-3 at C29 (19 nm NW): 118.675 (608-833-1686)

Nearby radio navigation aids

VOR radial/distance  VOR name  Freq  Var
MSNr151/15.4MADISON VORTAC108.6003E
JVLr348/21.6JANESVILLE VOR/DME114.3003E

 
NDB name  Hdg/Dist  Freq  Var  ID
ROCK RIVER233/25.537101WRYV .-. -.-- ...-
JUNEAU215/37.534401WUNU ..- -. ..-

Airport Services

Airframe service: NONE
Powerplant service: NONE

Runway Information

Runway N/S

Dimensions: 2500 x 100 ft. / 762 x 30 m
Surface: turf
RUNWAY N  RUNWAY S
Traffic pattern: leftleft
Obstructions: trees
GRAVEL PITS AND TREES SOUTH OF RWY; ALSO, 350' TV TOWER 2 MILES SW.
trees

Airport Ownership and Management from official FAA records

Ownership: Privately-owned
Owner: MATSON DEVELOPERS, INC
PO BOX 333
STOUGHTON, WI 53589
Phone 608-873-8700
Manager: JOHN MATSON
839 US HWY 51
STOUGHTON, WI 53589
Phone 608-712-2353

Airport Operational Statistics

Aircraft based on the field: 25
Single engine airplanes: 25
    

Additional Remarks

FOR CD CTC CHICAGO ARTCC AT 630-906-8921.

Instrument Procedures

There are no published instrument procedures at 2WI6.

Some nearby airports with instrument procedures:

87Y - Blackhawk Airfield (11 nm N)
KMSN - Dane County Regional Airport-Truax Field (15 nm NW)
61C - Fort Atkinson Municipal Airport (16 nm E)
KJVL - Southern Wisconsin Regional Airport (19 nm S)
C29 - Middleton Municipal Airport - Morey Field (19 nm NW)
 
Loc | Ops | Rwys | IFR | FBO | Links
Com | Nav | Svcs | Stats | Notes
Area around 2WI6 (Matson Airport)
 
Road maps at: MapQuest Bing Google
 
Aerial photo
WARNING: Photo may not be current or correct
Aerial photo of 2WI6 (Matson Airport)
Photo by John Matson
Taken in October 1999
looking south.

Do you have a better or more recent aerial photo of Matson Airport that you would like to share? If so, please send us your photo.

 
Sectional chart

 
Airport distance calculator
Flying to Matson Airport? Find the distance to fly.

From to 2WI6

Sunrise and sunset
Times for 05-Aug-2021
 Local
(UTC-5)
 Zulu
(UTC)
Morning civil twilight05:2110:21
Sunrise05:5310:53
Sunset20:1201:12
Evening civil twilight20:4401:44

Current date and time
Zulu (UTC)  06-Aug-2021 00:35:50
Local (UTC-5)  05-Aug-2021 19:35:50
 
METAR
KMSN 
15nm NW 
052353Z 24005KT 10SM -RA OVC060 23/16 A3001 RMK AO2 RAB50 SLP156 P0000 60000 T02330161 10283 20228 56006
KJVL 
19nm SE 
052345Z 21005KT 10SM OVC080 26/16 A3001
KC29 
19nm NW 
060015Z AUTO 00000KT 7SM SCT047 OVC055 21/16 A3001 RMK AO1 P0001 T02070162
KRYV 
26nm NE 
060015Z AUTO 26004KT 10SM OVC080 22/18 A3001 RMK AO2 T02210175
KEFT 
26nm SW 
060015Z AUTO 20005KT 10SM SCT035 OVC060 23/17 A3001 RMK AO2 T02270170
TAF
KMSN 
15nm NW 
051931Z 0520/0618 19010G20KT P6SM BKN050 BKN150 FM052300 19006KT P6SM VCSH OVC050 FM060600 19006KT P6SM VCTS BKN080CB FM061100 20006KT P6SM VCTS OVC026CB FM061300 20006KT P6SM BKN016 FM061600 21008KT P6SM BKN040
KJVL 
19nm SE 
051720Z 0518/0618 20011KT P6SM SCT050 BKN250 FM060000 19005KT P6SM OVC060 FM060900 19005KT P6SM VCTS OVC045CB FM061300 20007KT P6SM OVC035 FM061500 21009KT P6SM BKN013 FM061700 22010KT P6SM BKN040
NOTAMs
Click for the latest NOTAMs
NOTAMs are issued by the DoD/FAA and will open in a separate window not controlled by AirNav.

 

 
 

Would you like to see your business listed on this page?

 If your business provides an interesting product or service to pilots, flight crews, aircraft, or users of the Matson Airport, you should consider listing it here.  To start the listing process, click on the button below
 
Add a business
 

Other Pages about Matson Airport

Update a link
 
Copyright © AirNav, LLC. All rights reserved. Privacy Policy  Contact